Terminal Aerodrome Forecast
Issued by NWS Columbia, SC

Home | Current Version | Previous Version | Text Only | Print | Product List | Glossary On
Versions: 1 2 3 4 5 6 7 8 9 10 11 12 13 14 15 16 17 18 19 20 21 22 23 24 25 26 27 28 29 30 31 32 33 34 35 36 37 38 39 40 41 42 43 44 45 46 47 48 49 50
000
FTAK31 PAJN 250558 AAA
TAFAGS
TAF AMD
PAGS 250558Z 2506/2606 32006KT P6SM VCSH FEW006 BKN020 OVC035
      TEMPO 2506/2508 3SM -SN BKN006 OVC012
     FM250800 14010KT 3SM -SN BR BKN006 OVC012
     FM251500 33012KT 6SM -SN SCT030 BKN050
     FM251800 34010KT P6SM SCT050 BKN100 WS020/20030KT
     FM260000 34004KT P6SM SCT100
      AMD LTD TO CLD VIS AND WIND=

USA.gov is the U.S. government's official web portal to all federal, state and local government web resources and services.